EW6612 Weather Reports


time (UTC)temp
C
wind
direction
speed
KPH
gust
KPH
rain 1hr
cm
rain 24hr
cm
rain mn
cm
humidity
%
barometer
mb
20180821180731 27 13 8.0 14.5 0.00 0.00 0.00 59 1014.0
20180821175726 27 333 9.7 14.5 0.00 0.00 0.00 57 1013.9
20180821174726 28 346 9.7 14.5 0.00 0.00 0.00 54 1013.9
20180821173730 28 313 6.4 14.5 0.00 0.00 0.00 49 1014.0
20180821172726 29 329 4.8 8.0 0.00 0.00 0.00 51 1014.1
20180821171727 29 321 8.0 14.5 0.00 0.00 0.00 46 1014.0
20180821170731 29 342 9.7 14.5 0.00 0.00 0.00 47 1014.1
20180821165723 30 338 11.3 17.7 0.00 0.00 0.00 45 1014.0
20180821164723 30 332 11.3 19.3 0.00 0.00 0.00 44 1013.8
20180821163723 31 303 9.7 20.9 0.00 0.00 0.00 42 1013.8
20180821162724 31 304 12.9 19.3 0.00 0.00 0.00 42 1013.8
20180821161721 32 315 9.7 19.3 0.00 0.00 0.00 39 1013.8
20180821160721 32 280 8.0 17.7 0.00 0.00 0.00 40 1013.7
20180821155721 31 331 12.9 20.9 0.00 0.00 0.00 39 1013.8
20180821154722 32 331 11.3 19.3 0.00 0.00 0.00 37 1013.7
20180821153721 32 299 11.3 20.9 0.00 0.00 0.00 38 1013.7
20180821152722 33 311 11.3 19.3 0.00 0.00 0.00 37 1013.7
20180821151722 33 320 6.4 17.7 0.00 0.00 0.00 37 1013.8
20180821150722 33 228 9.7 17.7 0.00 0.00 0.00 34 1013.9
20180821145721 32 346 11.3 19.3 0.00 0.00 0.00 38 1014.0
20180821144719 32 313 11.3 19.3 0.00 0.00 0.00 35 1014.1
20180821143717 32 311 11.3 22.5 0.00 0.00 0.00 34 1014.1
20180821142716 32 306 12.9 22.5 0.00 0.00 0.00 34 1014.2
20180821141713 33 342 14.5 25.7 0.00 0.00 0.00 34 1014.2
20180821140711 33 342 12.9 19.3 0.00 0.00 0.00 35 1014.2
20180821135709 33 313 12.9 22.5 0.00 0.00 0.00 34 1014.2
20180821134710 33 323 12.9 20.9 0.00 0.00 0.00 33 1014.2
20180821133708 33 296 9.7 17.7 0.00 0.00 0.00 34 1014.3
20180821132709 34 321 12.9 22.5 0.00 0.00 0.00 33 1014.3
20180821131705 34 294 9.7 20.9 0.00 0.00 0.00 34 1014.3
20180821130705 34 321 12.9 20.9 0.00 0.00 0.00 35 1014.2
20180821125705 33 259 12.9 20.9 0.00 0.00 0.00 37 1014.2
20180821124705 33 317 8.0 19.3 0.00 0.00 0.00 37 1014.3
20180821123703 33 14 8.0 27.4 0.00 0.00 0.00 44 1014.4
20180821122701 33 101 8.0 16.1 0.00 0.00 0.00 40 1014.4
20180821121705 33 38 4.8 11.3 0.00 0.00 0.00 39 1014.4
20180821120657 32 54 4.8 9.7 0.00 0.00 0.00 41 1014.4
20180821115657 32 63 8.0 14.5 0.00 0.00 0.00 42 1014.6
20180821114657 32 16 4.8 8.0 0.00 0.00 0.00 40 1014.7
20180821113649 32 41 6.4 8.0 0.00 0.00 0.00 42 1014.8
20180821112647 31 42 3.2 6.4 0.00 0.00 0.00 43 1015.0
20180821111646 31 44 4.8 6.4 0.00 0.00 0.00 43 1015.0
20180821110644 30 108 4.8 6.4 0.00 0.00 0.00 44 1015.1
20180821105647 30 61 6.4 11.3 0.00 0.00 0.00 47 1015.2
20180821104642 30 44 6.4 9.7 0.00 0.00 0.00 47 1015.2
20180821103641 30 53 4.8 8.0 0.00 0.00 0.00 47 1015.3
20180821102641 29 38 4.8 8.0 0.00 0.00 0.00 46 1015.3
20180821101640 29 20 4.8 9.7 0.00 0.00 0.00 47 1015.4
20180821100634 28 46 3.2 8.0 0.00 0.00 0.00 48 1015.4
20180821095633 28 49 3.2 6.4 0.00 0.00 0.00 48 1015.5
20180821094632 28 55 3.2 6.4 0.00 0.00 0.00 47 1015.5
20180821093627 27 33 1.6 4.8 0.00 0.00 0.00 50 1015.5
20180821092624 27 32 3.2 4.8 0.00 0.00 0.00 52 1015.6
20180821091607 26 33 0.0 4.8 0.00 0.00 0.00 54 1015.6
20180821090603 25 48 0.0 1.6 0.00 0.00 0.00 57 1015.6
20180821085557 24 49 3.2 4.8 0.00 0.00 0.00 60 1015.7
20180821084559 24 50 3.2 4.8 0.00 0.00 0.00 62 1015.6
20180821083545 23 50 1.6 4.8 0.00 0.00 0.00 64 1015.6
20180821082545 22 60 0.0 1.6 0.00 0.00 0.00 66 1015.6
20180821081539 22 60 1.6 4.8 0.00 0.00 0.00 68 1015.6
20180821080538 21 60 1.6 3.2 0.00 0.00 0.00 70 1015.6
20180821075535 20 46 1.6 4.8 0.00 0.00 0.00 72 1015.7
20180821074534 20 38 1.6 4.8 0.00 0.00 0.00 75 1015.7
20180821073534 20 337 1.6 3.2 0.00 0.00 0.00 77 1015.6
20180821072541 18 301 0.0 1.6 0.00 0.00 0.00 82 1015.6
20180821071521 18 300 0.0 1.6 0.00 0.00 0.00 86 1015.7
20180821070514 17 300 0.0 1.6 0.00 0.00 0.00 91 1015.6
20180821065510 16 295 0.0 0.0 0.00 0.00 0.00 92 1015.5
20180821064458 15 295 0.0 0.0 0.00 0.00 0.00 91 1015.6
20180821063454 15 295 0.0 0.0 0.00 0.00 0.00 91 1015.6
20180821062446 14 295 0.0 0.0 0.00 0.00 0.00 91 1015.5
20180821061438 14 295 0.0 0.0 0.00 0.00 0.00 90 1015.5
20180821060430 14 295 0.0 0.0 0.00 0.00 0.00 90 1015.4
20180821055422 14 295 0.0 0.0 0.00 0.00 0.00 90 1015.3
20180821054412 14 295 0.0 0.0 0.00 0.00 0.00 90 1015.2
20180821053406 14 295 0.0 0.0 0.00 0.00 0.00 90 1015.1
20180821052356 14 295 0.0 0.0 0.00 0.00 0.00 90 1015.1
20180821051349 14 295 0.0 0.0 0.00 0.00 0.00 89 1015.1
20180821050341 14 295 0.0 0.0 0.00 0.00 0.00 89 1015.0
20180821045331 14 295 0.0 0.0 0.00 0.00 0.00 89 1015.1
20180821044322 15 295 0.0 0.0 0.00 0.00 0.00 89 1015.1
20180821043309 15 295 0.0 0.0 0.00 0.00 0.00 89 1015.0
20180821042307 15 295 0.0 0.0 0.00 0.00 0.00 88 1015.0
20180821041302 15 295 0.0 0.0 0.00 0.00 0.00 87 1014.9
20180821040256 15 295 0.0 0.0 0.00 0.00 0.00 87 1014.8
20180821035238 15 295 0.0 0.0 0.00 0.00 0.00 87 1014.8
20180821034236 15 295 0.0 0.0 0.00 0.00 0.00 87 1014.9
20180821033233 15 295 0.0 0.0 0.00 0.00 0.00 87 1014.8
20180821032219 15 295 0.0 0.0 0.00 0.00 0.00 86 1014.8
20180821031212 16 295 0.0 0.0 0.00 0.00 0.00 86 1014.7
20180821030204 15 295 0.0 0.0 0.00 0.00 0.00 87 1014.7
20180821025156 16 295 0.0 0.0 0.00 0.00 0.00 86 1014.8
20180821024150 16 295 0.0 0.0 0.00 0.00 0.00 86 1014.7
20180821023140 16 295 0.0 0.0 0.00 0.00 0.00 85 1014.8
20180821022131 16 295 0.0 0.0 0.00 0.00 0.00 85 1014.8
20180821021124 16 295 0.0 0.0 0.00 0.00 0.00 84 1014.9
20180821020122 16 295 0.0 0.0 0.00 0.00 0.00 84 1014.9
20180821015106 16 295 0.0 0.0 0.00 0.00 0.00 83 1014.9
20180821014059 16 295 0.0 0.0 0.00 0.00 0.00 84 1014.9
20180821013051 16 295 0.0 0.0 0.00 0.00 0.00 83 1015.0
20180821012054 16 295 0.0 0.0 0.00 0.00 0.00 82 1015.1
20180821011035 16 295 0.0 0.0 0.00 0.00 0.00 82 1015.0
20180821010035 17 295 0.0 0.0 0.00 0.00 0.00 81 1015.1
20180821004959 17 295 0.0 0.0 0.00 0.00 0.00 80 1015.2
20180821003951 17 295 0.0 0.0 0.00 0.00 0.00 80 1015.2
20180821002943 17 295 0.0 0.0 0.00 0.00 0.00 79 1015.3
20180821001935 17 295 0.0 0.0 0.00 0.00 0.00 79 1015.2
20180821000927 17 295 0.0 0.0 0.00 0.00 0.00 79 1015.2
20180820235919 17 295 0.0 0.0 0.00 0.00 0.00 76 1015.2
20180820234901 18 295 0.0 0.0 0.00 0.00 0.00 76 1015.3
20180820233859 18 295 0.0 0.0 0.00 0.00 0.00 76 1015.3
20180820232856 18 295 0.0 0.0 0.00 0.00 0.00 75 1015.4
20180820231847 18 295 0.0 0.0 0.00 0.00 0.00 74 1015.6
20180820230839 18 295 0.0 0.0 0.00 0.00 0.00 74 1015.6
20180820225824 18 295 0.0 0.0 0.00 0.00 0.00 73 1015.6
20180820224821 18 295 0.0 0.0 0.00 0.00 0.00 73 1015.7
20180820223818 19 295 0.0 0.0 0.00 0.00 0.00 70 1015.7
20180820222816 19 295 0.0 0.0 0.00 0.00 0.00 70 1015.7
20180820221814 19 295 0.0 0.0 0.00 0.00 0.00 70 1015.6
20180820220807 19 295 0.0 0.0 0.00 0.00 0.00 69 1015.7
20180820215758 20 295 0.0 0.0 0.00 0.00 0.00 68 1015.8
20180820214751 20 295 0.0 0.0 0.00 0.00 0.00 68 1015.8
20180820213739 20 295 0.0 0.0 0.00 0.00 0.00 68 1015.9
20180820212732 20 295 0.0 0.0 0.00 0.00 0.00 68 1015.9
20180820211722 20 295 0.0 0.0 0.00 0.00 0.00 66 1016.0
20180820210715 21 295 0.0 1.6 0.00 0.00 0.00 65 1015.9
20180820205709 21 295 0.0 1.6 0.00 0.00 0.00 63 1016.0
20180820204700 21 295 0.0 1.6 0.00 0.00 0.00 63 1016.0
20180820203652 22 295 0.0 3.2 0.00 0.00 0.00 62 1015.9
20180820202642 22 295 0.0 1.6 0.00 0.00 0.00 58 1015.9
20180820201642 23 295 0.0 1.6 0.00 0.00 0.00 56 1015.8
20180820200639 23 295 1.6 3.2 0.00 0.00 0.00 54 1015.7
20180820195638 24 295 4.8 6.4 0.00 0.00 0.00 50 1015.6
20180820194638 25 282 3.2 6.4 0.00 0.00 0.00 48 1015.6
20180820193637 25 284 3.2 4.8 0.00 0.00 0.00 47 1015.6
20180820192636 26 284 3.2 4.8 0.00 0.00 0.00 46 1015.6
20180820191634 26 284 1.6 3.2 0.00 0.00 0.00 44 1015.6
20180820190633 27 284 3.2 4.8 0.00 0.00 0.00 42 1015.5
20180820185631 28 297 3.2 4.8 0.00 0.00 0.00 41 1015.5
20180820184630 28 269 3.2 9.7 0.00 0.00 0.00 37 1015.4
20180820183631 30 314 4.8 11.3 0.00 0.00 0.00 36 1015.4
20180820182630 30 302 6.4 14.5 0.00 0.00 0.00 36 1015.3
20180820181630 30 332 8.0 16.1 0.00 0.00 0.00 34 1015.3